Location: Kawakawa
(35.3830°S, 174.0670°E)
Time: 03:18:37
(UTC+12:00)

Cosmos 1606 - Pass Details

Date: 15 August 2020
Orbit: 502 x 529 km, 82.5° (Epoch: 19 September)

Event Time Altitude Azimuth Distance (km) Brightness Sun altitude
Rises 18:35:28 0° 27° (NNE) 2,595 6.1 -9.4°
Reaches altitude 10° 18:38:00 10° 44° (NE) 1,720 5.0 -9.9°
Maximum altitude 18:40:44 19° 91° (E) 1,250 4.0 -10.5°
Drops below altitude 10° 18:43:30 10° 138° (SE) 1,741 4.9 -11.1°
Enters shadow 18:43:40 - 140° (SE) 1,793 5.0 -11.1°
